Socorro, NM

4:27 AM MDT on May 23, 2017 (GMT -0600)
Socorro Municipal

Weather History for KONM - May, 2013

Change the Weather History Date:

Friday, May 31, 2013

  Actual Average Record
Temperature  
Mean Temperature 84 °F -  
Max Temperature 96 °F 87 °F 97 °F (2014)
Min Temperature 71 °F 49 °F 44 °F (2011)
Cooling Degree Days 18    
Growing Degree Days 34 (Base 50)    
Moisture  
Dew Point 27 °F    
Average Humidity 14    
Maximum Humidity 22    
Minimum Humidity 7    
Precipitation  
Precipitation 0.00 in - - ()
Sea Level Pressure  
Sea Level Pressure 29.94 in    
Wind  
Wind Speed 19 mph (NW)    
Max Wind Speed 30 mph    
Max Gust Speed 38 mph    
Visibility 10 miles    
Events      
Averages and records for this station are not official NWS values.
T = Trace of Precipitation, MM = Missing Value Source: NWS Daily Summary

Daily Weather History Graph

Daily Weather History Graph

Search for Another Location

Airport or City:

Trip Planner

Search our weather history database for the weather conditions in past years. The results will help you decide how hot, cold, wet, or windy it might be!

Date:

Astronomy

May. 31, 2013 Rise Set
Actual Time 5:57 AM MDT 8:13 PM MDT
Civil Twilight 5:28 AM MDT 8:42 PM MDT
Nautical Twilight 4:53 AM MDT 9:17 PM MDT
Astronomical Twilight 4:15 AM MDT 9:55 PM MDT
Moon 1:02 AM MDT (5/31) 1:01 PM MDT (5/31)
Length of Visible Light 15h 13m
Length of Day
14h 15m
Waning Gibbous, 51% of the Moon is Illuminated
May 31
Waning Gibbous
May 31
Last Quarter
Jun 8
New
Jun 16
First Quarter
Jun 23
Full

Hourly Weather History & Observations

Time (MDT) Temp. Dew Point Humidity Pressure Visibility Wind Dir Wind Speed Gust Speed Precip Events Conditions
12:15 AM 79.9 °F 30.9 °F 17% 29.89 in 10.0 mi West 24.2 mph 33.4 mph N/A   Clear
12:35 AM 79.3 °F 31.5 °F 18% 29.89 in 10.0 mi West 23.0 mph 34.5 mph N/A   Clear
12:55 AM 78.8 °F 31.1 °F 18% 29.89 in 10.0 mi West 24.2 mph 36.8 mph N/A   Clear
1:15 AM 78.6 °F 30.6 °F 17% 29.89 in 10.0 mi West 28.8 mph 36.8 mph N/A   Clear
1:35 AM 78.3 °F 30.2 °F 17% 29.89 in 10.0 mi WNW 25.3 mph 35.7 mph N/A   Clear
1:55 AM 78.1 °F 30.0 °F 17% 29.90 in 10.0 mi WNW 21.9 mph 33.4 mph N/A   Clear
2:15 AM 77.5 °F 30.2 °F 18% 29.90 in 10.0 mi WNW 19.6 mph 26.5 mph N/A   Clear
2:35 AM 76.5 °F 30.2 °F 18% 29.91 in 10.0 mi WNW 17.3 mph 23.0 mph N/A   Clear
2:55 AM 76.1 °F 29.3 °F 18% 29.92 in 10.0 mi WNW 17.3 mph 28.8 mph N/A   Clear
3:15 AM 75.2 °F 29.3 °F 18% 29.92 in 10.0 mi WNW 21.9 mph 29.9 mph N/A   Clear
3:35 AM 75.2 °F 29.3 °F 18% 29.90 in 10.0 mi West 29.9 mph 36.8 mph N/A   Clear
3:55 AM 74.7 °F 30.0 °F 19% 29.90 in 10.0 mi West 28.8 mph 38.0 mph N/A   Clear
4:15 AM 74.3 °F 30.6 °F 20% 29.90 in 10.0 mi West 28.8 mph 36.8 mph N/A   Clear
4:35 AM 73.9 °F 31.1 °F 21% 29.91 in 10.0 mi West 26.5 mph 38.0 mph N/A   Clear
4:55 AM 73.8 °F 31.1 °F 21% 29.92 in 10.0 mi West 27.6 mph 33.4 mph N/A   Clear
5:15 AM 73.6 °F 31.5 °F 21% 29.92 in 10.0 mi West 26.5 mph 34.5 mph N/A   Clear
5:35 AM 73.6 °F 31.5 °F 21% 29.93 in 10.0 mi WNW 25.3 mph 35.7 mph N/A   Clear
5:55 AM 73.0 °F 30.2 °F 21% 29.94 in 10.0 mi WNW 24.2 mph 33.4 mph N/A   Clear
6:15 AM 72.7 °F 29.7 °F 20% 29.97 in 10.0 mi NW 13.8 mph 27.6 mph N/A   Clear
6:35 AM 72.3 °F 30.4 °F 21% 29.98 in 10.0 mi East 5.8 mph 19.6 mph N/A   Clear
6:55 AM 71.8 °F 30.7 °F 22% 29.99 in 10.0 mi NE 3.5 mph - N/A   Clear
7:15 AM 73.6 °F 30.6 °F 20% 30.00 in 10.0 mi North 6.9 mph 25.3 mph N/A   Clear
7:35 AM 75.2 °F 31.1 °F 20% 30.01 in 10.0 mi WNW 5.8 mph 25.3 mph N/A   Clear
7:55 AM 76.6 °F 32.0 °F 20% 30.01 in 10.0 mi WNW 12.7 mph 23.0 mph N/A   Clear
8:15 AM 77.4 °F 32.5 °F 20% 30.00 in 10.0 mi WNW 19.6 mph 32.2 mph N/A   Clear
8:35 AM 78.6 °F 32.9 °F 19% 30.00 in 10.0 mi WNW 16.1 mph 28.8 mph N/A   Clear
8:55 AM 79.5 °F 32.5 °F 18% 30.01 in 10.0 mi WNW 23.0 mph 31.1 mph N/A   Clear
9:15 AM 80.8 °F 32.4 °F 17% 30.01 in 10.0 mi WNW 20.7 mph 29.9 mph N/A   Clear
9:35 AM 81.5 °F 32.2 °F 17% 30.00 in 10.0 mi WNW 21.9 mph 29.9 mph N/A   Clear
9:55 AM 82.4 °F 32.0 °F 16% 30.01 in 10.0 mi West 16.1 mph 29.9 mph N/A   Clear
10:15 AM 83.8 °F 30.6 °F 15% 30.01 in 10.0 mi West 13.8 mph 17.3 mph N/A   Clear
10:35 AM 85.6 °F 29.8 °F 13% 30.00 in 10.0 mi NNW 10.4 mph 18.4 mph N/A   Clear
10:55 AM 86.4 °F 28.4 °F 12% 30.00 in 10.0 mi West 18.4 mph 24.2 mph N/A   Clear
11:15 AM 87.1 °F 29.8 °F 13% 30.00 in 10.0 mi NW 13.8 mph 21.9 mph N/A   Clear
11:35 AM 87.4 °F 30.2 °F 13% 29.99 in 10.0 mi North 10.4 mph - N/A   Clear
11:55 AM 88.5 °F 29.1 °F 12% 29.99 in 10.0 mi NNW 11.5 mph 18.4 mph N/A   Clear
12:15 PM 91.0 °F 29.1 °F 11% 29.97 in 10.0 mi NNW 12.7 mph 20.7 mph N/A   Clear
12:35 PM 90.7 °F 28.6 °F 11% 29.97 in 10.0 mi NW 13.8 mph 24.2 mph N/A   Clear
12:55 PM 91.0 °F 28.2 °F 11% 29.96 in 10.0 mi NNW 16.1 mph 23.0 mph N/A   Clear
1:15 PM 93.2 °F 28.6 °F 10% 29.95 in 10.0 mi North 11.5 mph 20.7 mph N/A   Clear
1:35 PM 93.2 °F 27.3 °F 9% 29.94 in 10.0 mi NW 20.7 mph 26.5 mph N/A   Clear
1:55 PM 91.4 °F 28.4 °F 10% 29.93 in 10.0 mi Calm Calm - N/A   Clear
2:15 PM 92.5 °F 28.2 °F 10% 29.93 in 10.0 mi WNW 3.5 mph 18.4 mph N/A   Clear
2:35 PM 95.2 °F 27.9 °F 9% 29.92 in 10.0 mi NW 10.4 mph 19.6 mph N/A   Clear
2:55 PM 93.2 °F 28.2 °F 10% 29.91 in 10.0 mi Calm Calm - N/A   Clear
3:15 PM 95.7 °F 25.0 °F 8% 29.91 in 10.0 mi West 15.0 mph 25.3 mph N/A   Clear
3:35 PM 94.6 °F 25.5 °F 8% 29.91 in 10.0 mi West 9.2 mph 21.9 mph N/A   Clear
3:55 PM 96.1 °F 25.7 °F 8% 29.89 in 10.0 mi NW 13.8 mph 20.7 mph N/A   Clear
4:15 PM 95.9 °F 24.6 °F 8% 29.89 in 10.0 mi West 17.3 mph 23.0 mph N/A   Clear
4:35 PM 94.6 °F 23.9 °F 8% 29.88 in 10.0 mi West 16.1 mph 19.6 mph N/A   Clear
4:55 PM 96.4 °F 24.1 °F 7% 29.88 in 10.0 mi WNW 12.7 mph 26.5 mph N/A   Clear
5:15 PM 96.1 °F 25.2 °F 8% 29.87 in 10.0 mi WNW 16.1 mph - N/A   Clear
5:35 PM 95.4 °F 24.1 °F 8% 29.87 in 10.0 mi WNW 16.1 mph 21.9 mph N/A   Clear
5:55 PM 94.3 °F 24.6 °F 8% 29.87 in 10.0 mi WNW 6.9 mph 26.5 mph N/A   Clear
6:15 PM 94.1 °F 24.3 °F 8% 29.87 in 10.0 mi NW 11.5 mph 25.3 mph N/A   Clear
6:35 PM 93.2 °F 23.7 °F 8% 29.87 in 10.0 mi WNW 15.0 mph 18.4 mph N/A   Clear
6:55 PM 92.7 °F 23.5 °F 8% 29.88 in 10.0 mi WNW 12.7 mph - N/A   Clear
7:15 PM 91.4 °F 23.5 °F 9% 29.88 in 10.0 mi WNW 12.7 mph 21.9 mph N/A   Clear
7:35 PM 90.0 °F 23.9 °F 9% 29.89 in 10.0 mi WNW 11.5 mph 16.1 mph N/A   Clear
7:55 PM 88.2 °F 23.9 °F 10% 29.89 in 10.0 mi NW 12.7 mph 18.4 mph N/A   Clear
8:15 PM 87.1 °F 23.7 °F 10% 29.90 in 10.0 mi NW 10.4 mph 21.9 mph N/A   Clear
8:35 PM 85.5 °F 22.5 °F 10% 29.90 in 10.0 mi NW 11.5 mph 18.4 mph N/A   Clear
8:55 PM 84.7 °F 21.7 °F 10% 29.91 in 10.0 mi NW 13.8 mph - N/A   Clear
9:15 PM 84.2 °F 21.4 °F 10% 29.92 in 10.0 mi NW 13.8 mph 19.6 mph N/A   Clear
9:35 PM 84.7 °F 20.1 °F 9% 29.93 in 10.0 mi NW 19.6 mph 25.3 mph N/A   Clear
9:55 PM 84.4 °F 19.6 °F 9% 29.94 in 10.0 mi NNW 16.1 mph 26.5 mph N/A   Clear
10:15 PM 80.2 °F 18.0 °F 10% 29.97 in 10.0 mi North 15.0 mph 20.7 mph N/A   Clear
10:35 PM 78.1 °F 16.3 °F 10% 29.98 in 10.0 mi North 13.8 mph - N/A   Clear
10:55 PM 75.4 °F 17.2 °F 11% 29.99 in 10.0 mi NNW 13.8 mph - N/A   Clear
11:15 PM 74.1 °F 16.5 °F 11% 29.99 in 10.0 mi NNW 13.8 mph - N/A   Clear
11:35 PM 73.4 °F 13.5 °F 10% 30.01 in 10.0 mi NNW 15.0 mph - N/A   Clear
11:55 PM 72.3 °F 12.2 °F 10% 30.01 in 10.0 mi NNW 13.8 mph 19.6 mph N/A   Clear